| time (UTC) | temp F | wind direction | speed knots | gust knots | rain 1hr in | rain 24hr in | rain mn in | humidity % | barometer mb |
| 20260508110020 | 56 | 354 | 7.0 | 13.9 | 0.00 | 0.00 | 0.00 | 22 | 1025.7 |
| 20260508105019 | 56 | 329 | 7.0 | 13.9 | 0.00 | 0.00 | 0.00 | 22 | 1025.7 |
| 20260508104038 | 56 | 342 | 6.1 | 13.9 | 0.00 | 0.00 | 0.00 | 22 | 1025.8 |
| 20260508103017 | 55 | 336 | 7.0 | 13.9 | 0.00 | 0.00 | 0.00 | 23 | 1025.8 |
| 20260508102046 | 55 | 336 | 7.0 | 15.6 | 0.00 | 0.00 | 0.00 | 23 | 1025.7 |
| 20260508101044 | 55 | 334 | 7.8 | 15.6 | 0.00 | 0.00 | 0.00 | 24 | 1025.7 |
| 20260508100103 | 55 | 335 | 7.8 | 16.5 | 0.00 | 0.00 | 0.00 | 24 | 1025.6 |
| 20260508095041 | 54 | 333 | 8.7 | 16.5 | 0.00 | 0.00 | 0.00 | 25 | 1025.6 |
| 20260508094042 | 54 | 328 | 6.1 | 13.0 | 0.00 | 0.00 | 0.00 | 24 | 1025.6 |
| 20260508093101 | 55 | 335 | 5.2 | 12.2 | 0.00 | 0.00 | 0.00 | 26 | 1025.6 |
| 20260508092100 | 54 | 320 | 6.1 | 13.9 | 0.00 | 0.00 | 0.00 | 28 | 1025.6 |
| 20260508091059 | 53 | 340 | 7.0 | 12.2 | 0.00 | 0.00 | 0.00 | 28 | 1025.6 |
| 20260508090057 | 53 | 1 | 6.1 | 12.2 | 0.00 | 0.00 | 0.00 | 29 | 1025.7 |
| 20260508085036 | 53 | 346 | 6.1 | 12.2 | 0.00 | 0.00 | 0.00 | 28 | 1025.7 |
| 20260508084036 | 53 | 335 | 6.1 | 12.2 | 0.00 | 0.00 | 0.00 | 31 | 1025.7 |
| 20260508083055 | 52 | 352 | 6.1 | 12.2 | 0.00 | 0.00 | 0.00 | 31 | 1025.7 |
| 20260508082034 | 52 | 337 | 7.0 | 12.2 | 0.00 | 0.00 | 0.00 | 33 | 1025.7 |
| 20260508081036 | 53 | 332 | 5.2 | 13.0 | 0.00 | 0.00 | 0.00 | 31 | 1025.7 |
| 20260508080031 | 52 | 327 | 5.2 | 11.3 | 0.00 | 0.00 | 0.00 | 33 | 1025.7 |
| 20260508075031 | 52 | 320 | 6.1 | 11.3 | 0.00 | 0.00 | 0.00 | 34 | 1025.6 |
| 20260508074031 | 50 | 320 | 6.1 | 11.3 | 0.00 | 0.00 | 0.00 | 36 | 1025.5 |
| 20260508073029 | 51 | 334 | 6.1 | 11.3 | 0.00 | 0.00 | 0.00 | 36 | 1025.4 |
| 20260508072028 | 50 | 324 | 6.1 | 10.4 | 0.00 | 0.00 | 0.00 | 37 | 1025.4 |
| 20260508071047 | 49 | 355 | 6.1 | 10.4 | 0.00 | 0.00 | 0.00 | 38 | 1025.3 |
| 20260508070026 | 49 | 324 | 6.1 | 10.4 | 0.00 | 0.00 | 0.00 | 39 | 1025.3 |
| 20260508065044 | 49 | 342 | 6.1 | 11.3 | 0.00 | 0.00 | 0.00 | 40 | 1025.2 |
| 20260508064025 | 48 | 339 | 6.1 | 9.6 | 0.00 | 0.00 | 0.00 | 41 | 1025.1 |
| 20260508063044 | 48 | 344 | 6.1 | 10.4 | 0.00 | 0.00 | 0.00 | 42 | 1025.0 |
| 20260508062043 | 47 | 338 | 6.1 | 9.6 | 0.00 | 0.00 | 0.00 | 43 | 1024.9 |
| 20260508061021 | 46 | 344 | 6.1 | 9.6 | 0.00 | 0.00 | 0.00 | 45 | 1024.8 |
| 20260508060020 | 45 | 346 | 5.2 | 8.7 | 0.00 | 0.00 | 0.00 | 47 | 1024.7 |
| 20260508055019 | 45 | 343 | 5.2 | 10.4 | 0.00 | 0.00 | 0.00 | 48 | 1024.6 |
| 20260508054038 | 44 | 349 | 5.2 | 10.4 | 0.00 | 0.00 | 0.00 | 49 | 1024.5 |
| 20260508053016 | 44 | 339 | 4.3 | 8.7 | 0.00 | 0.00 | 0.00 | 50 | 1024.5 |
| 20260508052017 | 43 | 343 | 5.2 | 8.7 | 0.00 | 0.00 | 0.00 | 52 | 1024.3 |
| 20260508051046 | 43 | 334 | 5.2 | 8.7 | 0.00 | 0.00 | 0.00 | 54 | 1024.2 |
| 20260508050045 | 43 | 340 | 4.3 | 8.7 | 0.00 | 0.00 | 0.00 | 55 | 1024.1 |
| 20260508045044 | 42 | 335 | 4.3 | 8.7 | 0.00 | 0.00 | 0.00 | 56 | 1024.0 |
| 20260508044042 | 41 | 341 | 4.3 | 7.0 | 0.00 | 0.00 | 0.00 | 56 | 1023.8 |
| 20260508043040 | 41 | 334 | 4.3 | 7.0 | 0.00 | 0.00 | 0.00 | 57 | 1023.8 |
| 20260508042039 | 40 | 333 | 4.3 | 6.1 | 0.00 | 0.00 | 0.00 | 58 | 1023.7 |
| 20260508041038 | 39 | 332 | 3.5 | 7.0 | 0.00 | 0.00 | 0.00 | 60 | 1023.6 |
| 20260508040037 | 39 | 328 | 2.6 | 5.2 | 0.00 | 0.00 | 0.00 | 62 | 1023.5 |
| 20260508035036 | 38 | 319 | 2.6 | 4.3 | 0.00 | 0.00 | 0.00 | 64 | 1023.4 |
| 20260508034035 | 38 | 309 | 2.6 | 4.3 | 0.00 | 0.00 | 0.00 | 66 | 1023.3 |
| 20260508033035 | 37 | 312 | 2.6 | 4.3 | 0.00 | 0.00 | 0.00 | 67 | 1023.1 |
| 20260508032034 | 37 | 311 | 2.6 | 4.3 | 0.00 | 0.00 | 0.00 | 66 | 1023.0 |
| 20260508031033 | 36 | 318 | 3.5 | 6.1 | 0.00 | 0.00 | 0.00 | 67 | 1022.9 |
| 20260508030032 | 36 | 316 | 2.6 | 4.3 | 0.00 | 0.00 | 0.00 | 67 | 1022.9 |
| 20260508025030 | 35 | 308 | 2.6 | 4.3 | 0.00 | 0.00 | 0.00 | 68 | 1022.8 |
| 20260508024031 | 36 | 306 | 2.6 | 4.3 | 0.00 | 0.00 | 0.00 | 67 | 1022.6 |
| 20260508023030 | 36 | 307 | 2.6 | 4.3 | 0.00 | 0.00 | 0.00 | 68 | 1022.5 |
| 20260508022029 | 36 | 307 | 2.6 | 5.2 | 0.00 | 0.00 | 0.00 | 67 | 1022.3 |
| 20260508021028 | 36 | 316 | 3.5 | 6.1 | 0.00 | 0.00 | 0.00 | 65 | 1022.2 |
| 20260508020026 | 37 | 321 | 3.5 | 5.2 | 0.00 | 0.00 | 0.00 | 64 | 1022.1 |
| 20260508015027 | 37 | 327 | 3.5 | 6.1 | 0.00 | 0.00 | 0.00 | 62 | 1022.0 |
| 20260508014045 | 37 | 321 | 3.5 | 7.8 | 0.00 | 0.00 | 0.00 | 63 | 1021.9 |
| 20260508013023 | 38 | 326 | 4.3 | 7.0 | 0.00 | 0.00 | 0.00 | 60 | 1021.8 |
| 20260508012022 | 38 | 327 | 3.5 | 6.1 | 0.00 | 0.00 | 0.00 | 59 | 1021.7 |
| 20260508011021 | 38 | 324 | 4.3 | 6.1 | 0.00 | 0.00 | 0.00 | 58 | 1021.6 |
| 20260508010040 | 38 | 329 | 3.5 | 6.1 | 0.00 | 0.00 | 0.00 | 58 | 1021.4 |
| 20260508005019 | 38 | 328 | 4.3 | 7.0 | 0.00 | 0.00 | 0.00 | 58 | 1021.3 |
| 20260508004018 | 38 | 330 | 4.3 | 7.8 | 0.00 | 0.00 | 0.00 | 57 | 1021.2 |
| 20260508003038 | 39 | 338 | 5.2 | 8.7 | 0.00 | 0.00 | 0.00 | 56 | 1021.1 |
| 20260508002037 | 39 | 339 | 5.2 | 8.7 | 0.00 | 0.00 | 0.00 | 55 | 1021.0 |
| 20260508001106 | 39 | 336 | 5.2 | 9.6 | 0.00 | 0.00 | 0.00 | 55 | 1020.8 |
| 20260508000105 | 40 | 336 | 5.2 | 9.6 | 0.00 | 0.00 | 0.00 | 56 | 1020.7 |
| 20260507235043 | 40 | 331 | 4.3 | 8.7 | 0.00 | 0.00 | 0.00 | 57 | 1020.6 |
| 20260507234042 | 40 | 316 | 4.3 | 7.8 | 0.00 | 0.00 | 0.00 | 56 | 1020.5 |
| 20260507233041 | 40 | 318 | 3.5 | 7.0 | 0.00 | 0.00 | 0.00 | 56 | 1020.4 |
| 20260507232042 | 40 | 324 | 3.5 | 6.1 | 0.00 | 0.00 | 0.00 | 55 | 1020.3 |
| 20260507231040 | 41 | 325 | 3.5 | 7.0 | 0.00 | 0.00 | 0.00 | 55 | 1020.2 |
| 20260507230039 | 41 | 327 | 3.5 | 7.0 | 0.00 | 0.00 | 0.00 | 57 | 1020.0 |
| 20260507225038 | 41 | 321 | 2.6 | 7.0 | 0.00 | 0.00 | 0.00 | 58 | 1019.9 |
| 20260507224036 | 41 | 314 | 2.6 | 7.8 | 0.00 | 0.00 | 0.00 | 57 | 1019.8 |
| 20260507223037 | 41 | 314 | 1.7 | 6.1 | 0.00 | 0.00 | 0.00 | 56 | 1019.7 |
| 20260507222056 | 42 | 314 | 2.6 | 5.2 | 0.00 | 0.00 | 0.00 | 53 | 1019.6 |
| 20260507221035 | 42 | 311 | 2.6 | 7.0 | 0.00 | 0.00 | 0.00 | 52 | 1019.5 |
| 20260507220033 | 42 | 306 | 2.6 | 7.0 | 0.00 | 0.00 | 0.00 | 51 | 1019.4 |
| 20260507215033 | 43 | 302 | 2.6 | 5.2 | 0.00 | 0.00 | 0.00 | 51 | 1019.3 |
| 20260507214031 | 43 | 301 | 2.6 | 5.2 | 0.00 | 0.00 | 0.00 | 50 | 1019.2 |
| 20260507213050 | 43 | 299 | 2.6 | 5.2 | 0.00 | 0.00 | 0.00 | 48 | 1019.0 |
| 20260507212030 | 44 | 299 | 3.5 | 7.8 | 0.00 | 0.00 | 0.00 | 47 | 1018.9 |
| 20260507211028 | 44 | 304 | 3.5 | 9.6 | 0.00 | 0.00 | 0.00 | 45 | 1018.7 |
| 20260507210027 | 44 | 302 | 3.5 | 8.7 | 0.00 | 0.00 | 0.00 | 44 | 1018.6 |
| 20260507205026 | 45 | 306 | 3.5 | 8.7 | 0.00 | 0.00 | 0.00 | 43 | 1018.5 |
| 20260507204025 | 45 | 310 | 3.5 | 6.1 | 0.00 | 0.00 | 0.00 | 42 | 1018.4 |
| 20260507203024 | 45 | 299 | 3.5 | 7.0 | 0.00 | 0.00 | 0.00 | 40 | 1018.2 |
| 20260507202023 | 46 | 304 | 3.5 | 8.7 | 0.00 | 0.00 | 0.00 | 38 | 1018.1 |
| 20260507201022 | 47 | 312 | 4.3 | 11.3 | 0.00 | 0.00 | 0.00 | 36 | 1018.0 |
| 20260507200021 | 47 | 311 | 5.2 | 11.3 | 0.00 | 0.00 | 0.00 | 35 | 1017.8 |
| 20260507195021 | 47 | 311 | 5.2 | 11.3 | 0.00 | 0.00 | 0.00 | 35 | 1017.7 |
| 20260507194020 | 47 | 320 | 3.5 | 8.7 | 0.00 | 0.00 | 0.00 | 35 | 1017.6 |
| 20260507193018 | 48 | 324 | 4.3 | 7.8 | 0.00 | 0.00 | 0.00 | 34 | 1017.4 |
| 20260507192037 | 48 | 328 | 3.5 | 7.8 | 0.00 | 0.00 | 0.00 | 34 | 1017.3 |
| 20260507191016 | 48 | 331 | 4.3 | 7.8 | 0.00 | 0.00 | 0.00 | 33 | 1017.1 |
| 20260507190047 | 49 | 329 | 5.2 | 11.3 | 0.00 | 0.00 | 0.00 | 31 | 1016.9 |
| 20260507185045 | 49 | 322 | 6.1 | 12.2 | 0.00 | 0.00 | 0.00 | 30 | 1016.8 |
| 20260507184044 | 50 | 310 | 4.3 | 12.2 | 0.00 | 0.00 | 0.00 | 29 | 1016.6 |
| 20260507183043 | 48 | 308 | 1.7 | 5.2 | 0.00 | 0.00 | 0.00 | 30 | 1016.6 |
| 20260507182042 | 48 | 243 | 2.6 | 6.1 | 0.00 | 0.00 | 0.00 | 28 | 1016.5 |
| 20260507181040 | 49 | 189 | 3.5 | 7.0 | 0.00 | 0.00 | 0.00 | 26 | 1016.2 |
| 20260507180040 | 49 | 171 | 4.3 | 7.0 | 0.00 | 0.00 | 0.00 | 26 | 1016.1 |
| 20260507175038 | 50 | 170 | 4.3 | 7.8 | 0.00 | 0.00 | 0.00 | 26 | 1016.0 |
| 20260507174037 | 50 | 176 | 5.2 | 10.4 | 0.00 | 0.00 | 0.00 | 25 | 1015.9 |
| 20260507173036 | 50 | 171 | 5.2 | 10.4 | 0.00 | 0.00 | 0.00 | 24 | 1015.8 |
| 20260507172035 | 51 | 165 | 5.2 | 11.3 | 0.00 | 0.00 | 0.00 | 24 | 1015.7 |
| 20260507171036 | 51 | 164 | 5.2 | 11.3 | 0.00 | 0.00 | 0.00 | 24 | 1015.6 |
| 20260507170035 | 52 | 162 | 6.1 | 10.4 | 0.00 | 0.00 | 0.00 | 24 | 1015.6 |
| 20260507165033 | 52 | 182 | 6.1 | 12.2 | 0.00 | 0.00 | 0.00 | 24 | 1015.5 |
| 20260507164032 | 52 | 183 | 7.0 | 12.2 | 0.00 | 0.00 | 0.00 | 24 | 1015.4 |
| 20260507163050 | 53 | 179 | 7.8 | 13.9 | 0.00 | 0.00 | 0.00 | 23 | 1015.3 |
| 20260507162029 | 53 | 179 | 7.8 | 13.9 | 0.00 | 0.00 | 0.00 | 23 | 1015.2 |
| 20260507161030 | 54 | 188 | 7.8 | 14.8 | 0.00 | 0.00 | 0.00 | 23 | 1015.1 |
| 20260507160029 | 54 | 192 | 8.7 | 13.9 | 0.00 | 0.00 | 0.00 | 23 | 1015.0 |
| 20260507155047 | 54 | 194 | 7.8 | 13.9 | 0.00 | 0.00 | 0.00 | 23 | 1014.9 |
| 20260507154026 | 55 | 195 | 7.0 | 11.3 | 0.00 | 0.00 | 0.00 | 23 | 1015.0 |
| 20260507153045 | 55 | 206 | 7.0 | 11.3 | 0.00 | 0.00 | 0.00 | 23 | 1014.9 |
| 20260507152023 | 57 | 196 | 6.1 | 12.2 | 0.00 | 0.00 | 0.00 | 21 | 1014.9 |
| 20260507151022 | 55 | 177 | 4.3 | 11.3 | 0.00 | 0.00 | 0.00 | 23 | 1014.8 |
| 20260507150041 | 55 | 173 | 6.1 | 12.2 | 0.00 | 0.00 | 0.00 | 23 | 1014.9 |
| 20260507145020 | 57 | 88 | 1.7 | 5.2 | 0.00 | 0.00 | 0.00 | 16 | 1014.9 |
| 20260507144018 | 56 | 339 | 2.6 | 7.0 | 0.00 | 0.00 | 0.00 | 17 | 1014.8 |
| 20260507143020 | 56 | 297 | 4.3 | 7.8 | 0.00 | 0.00 | 0.00 | 17 | 1014.8 |
| 20260507142018 | 56 | 279 | 3.5 | 7.0 | 0.00 | 0.00 | 0.00 | 17 | 1014.8 |
| 20260507141037 | 57 | 269 | 4.3 | 7.0 | 0.00 | 0.00 | 0.00 | 17 | 1014.7 |
| 20260507140046 | 57 | 243 | 3.5 | 7.0 | 0.00 | 0.00 | 0.00 | 18 | 1014.7 |
| 20260507135045 | 56 | 257 | 3.5 | 7.0 | 0.00 | 0.00 | 0.00 | 17 | 1014.7 |
| 20260507134044 | 57 | 274 | 4.3 | 7.8 | 0.00 | 0.00 | 0.00 | 17 | 1014.7 |
| 20260507133043 | 56 | 266 | 3.5 | 7.8 | 0.00 | 0.00 | 0.00 | 18 | 1014.7 |
| 20260507132043 | 57 | 285 | 4.3 | 8.7 | 0.00 | 0.00 | 0.00 | 18 | 1014.7 |
| 20260507131041 | 56 | 303 | 6.1 | 9.6 | 0.00 | 0.00 | 0.00 | 18 | 1014.8 |
| 20260507130040 | 57 | 302 | 3.5 | 9.6 | 0.00 | 0.00 | 0.00 | 18 | 1014.8 |
| 20260507125059 | 56 | 290 | 5.2 | 8.7 | 0.00 | 0.00 | 0.00 | 19 | 1014.8 |
| 20260507124038 | 56 | 297 | 3.5 | 9.6 | 0.00 | 0.00 | 0.00 | 18 | 1014.8 |
| 20260507123037 | 56 | 289 | 5.2 | 9.6 | 0.00 | 0.00 | 0.00 | 20 | 1014.8 |
| 20260507122037 | 55 | 309 | 4.3 | 8.7 | 0.00 | 0.00 | 0.00 | 20 | 1014.8 |
| 20260507121058 | 56 | 326 | 4.3 | 7.8 | 0.00 | 0.00 | 0.00 | 20 | 1014.8 |
| 20260507120055 | 56 | 294 | 4.3 | 8.7 | 0.00 | 0.00 | 0.00 | 21 | 1014.8 |
| 20260507115053 | 55 | 281 | 5.2 | 8.7 | 0.00 | 0.00 | 0.00 | 20 | 1014.8 |
| 20260507114032 | 55 | 251 | 4.3 | 7.8 | 0.00 | 0.00 | 0.00 | 20 | 1014.8 |
| 20260507113031 | 55 | 296 | 5.2 | 11.3 | 0.00 | 0.00 | 0.00 | 20 | 1014.8 |
| 20260507112030 | 56 | 271 | 4.3 | 11.3 | 0.00 | 0.00 | 0.00 | 21 | 1014.8 |
| 20260507111029 | 55 | 274 | 4.3 | 8.7 | 0.00 | 0.00 | 0.00 | 21 | 1014.9 |